OpenBCM V1.07b12 (Linux)

Packet Radio Mailbox

SR1BSZ

[Szczecin_PL JO73GK]

 Login: GUEST





  
I0OJJ  > KEPS     30.08.25 23:04z 316 Lines 14997 Bytes #5 (0) @ AMSAT
BID : ORB25242.1
Read: GUEST
Subj: 2Line Orbital Elements 25242.AMSAT
Path: SR1BSZ<EA2RCF<I0OJJ
Sent: 250830/0025z @:I0OJJ.ITA.EU [Rome] obcm1.08-10-g596e
From: I0OJJ @ I0OJJ.ITA.EU (Gustavo)
To:   KEPS @ AMSAT
X-Info: This message was generated automatically


QST de W1STR

AMSAT Orbital Elements for Amateur Satellites in TLE Format
From Orbital Analysis Office
New England Sci-Tech STEM Education Center
Natick MA August 30, 2025
To all radio amateurs


These element sets describe the orbits of various satellites 
in use by the amateur radio community. For details see:
www.amsat.org/keplerian-elements-formats/

A daily update of element sets is available at:
www.amsat.org/tle/daily-bulletin.txt
or without bulletin text:
www.amsat.org/tle/dailytle.txt


AO-07
1 07530U 74089B   25241.31086160 -.00000049  00000-0 -17635-4 0  9993
2 07530 101.9973 246.4425 0012063 329.9191  41.8510 12.53691059323941
UO-11
1 14781U 84021B   25241.14836611  .00001960  00000-0  21090-3 0  9991
2 14781  97.7624 205.9647 0009374  73.8260 286.3988 14.89594953213636
AO-27
1 22825U 93061C   25241.12703267  .00000144  00000-0  71937-4 0  9990
2 22825  98.7300 303.0592 0007553 232.2945 127.7554 14.30821780665234
FO-29
1 24278U 96046B   25241.26873740  .00000013  00000-0  46020-4 0  9999
2 24278  98.5623 124.5034 0350596 133.4155 229.6741 13.53252247433686
NOAA-15
1 25338U 98030A   25241.30598238  .00000178  00000-0  90733-4 0  9995
2 25338  98.5331 264.4849 0011317 119.8348 240.3959 14.27008006419662
GO-32
1 25397U 98043D   25241.19629561  .00000108  00000-0  67071-4 0  9997
2 25397  98.9785 222.0273 0001375  25.2018 334.9227 14.24332747409769
ISS
1 25544U 98067A   25241.17149947  .00012855  00000-0  23063-3 0  9994
2 25544  51.6343 305.3322 0003294 287.4359  72.6270 15.50271250526485
NO-44
1 26931U 01043C   25241.25890825  .00000154  00000-0  88555-4 0  9997
2 26931  67.0497 279.2382 0006924 275.8755  84.1557 14.31767898248658
SO-50
1 27607U 02058C   25241.27384144  .00001426  00000-0  19234-3 0  9999
2 27607  64.5537 311.4107 0064797 316.8629  42.7409 14.81819830221182
CO-55
1 27844U 03031E   25241.27186221  .00000415  00000-0  19971-3 0  9995
2 27844  98.6785 248.5129 0008788 319.2523  40.7998 14.24050695150129
CO-57
1 27848U 03031J   25240.97699228  .00000358  00000-0  17698-3 0  9991
2 27848  98.6812 248.1661 0009052 338.9017  21.1787 14.23377575149802
RS-22
1 27939U 03042A   25241.27746705  .00001569  00000-0  25501-3 0  9998
2 27939  98.3357  52.7205 0012526 112.1697  12.8374 14.72525973172573
CO-58
1 28895U 05043F   25240.91287071  .00002260  00000-0  37400-3 0  9999
2 28895  98.2609  26.3264 0015369  55.5585 304.7071 14.71258025 58750
CO-65
1 32785U 08021C   25241.19959815  .00007999  00000-0  56510-3 0  9991
2 32785  97.7937 213.0293 0008013 306.2666  53.7819 15.05162741941201
CO-66
1 32791U 08021J   25240.91062662  .00018864  00000-0  86544-3 0  9995
2 32791  97.7345 222.8683 0001775 211.0085 149.1045 15.20480199942690
RS-30
1 32953U 08025A   25241.28333648  .00000054  00000-0  32056-3 0  9996
2 32953  82.5066 176.9973 0018026 228.0313 131.9232 12.43167709783424
NOAA-19
1 33591U 09005A   25241.25976980  .00000143  00000-0  10025-3 0  9994
2 33591  98.9911 306.3946 0014612 133.3715 226.8676 14.13400128853241
SRMSAT
1 37841U 11058D   25240.47907854  .00000443  00000-0  96830-4 0  9996
2 37841  19.9731  31.0351 0011658 223.8473 175.3385 14.11456588716412
ZACUBE-1
1 39417U 13066B   25241.13216929  .00006167  00000-0  52643-3 0  9990
2 39417  97.7859 197.7803 0044408 141.2659 219.1761 14.97287013636963
Delfi-N3xt
1 39428U 13066N   25241.28037437  .00009825  00000-0  97516-3 0  9995
2 39428  97.8288 158.0560 0085274  94.4322 266.6644 14.89222506631086
GOMX-1
1 39430U 13066Q   25241.26906156  .00002185  00000-0  34399-3 0  9991
2 39430  97.6750  94.9632 0130537 294.4674  64.2963 14.67916887627061
LO-74
1 39440U 13066AA  25241.25349380  .00005655  00000-0  56583-3 0  9995
2 39440  97.8529 185.2984 0059503 273.9277  85.5140 14.90506500633452
AO-73
1 39444U 13066AE  25241.18094505  .00011248  00000-0  81762-3 0  9999
2 39444  97.7886 203.4786 0042697 113.6214 246.9502 15.03265856635695
DTUSAT-2
1 40030U 14033W   25240.87363554  .00010550  00000-0  66653-3 0  9992
2 40030  98.0631 216.6598 0010306 139.5229 220.6767 15.09215430608503
EO-80
1 40032U 14033Y   25241.15500619  .00011156  00000-0  70290-3 0  9996
2 40032  98.0507 216.4974 0010376  89.7154 270.5262 15.09297366608527
LILACSAT-2
1 40908U 15049K   25241.32522052  .00015756  00000-0  38824-3 0  9997
2 40908  97.5041 263.7065 0007671 218.2113 141.8590 15.40631846550654
IO-86
1 40931U 15052B   25151.18580175  .00001241  00000-0  78118-4 0  9996
2 40931   6.0006  24.0987 0012733 338.8432  21.1169 14.78805930523159
Horyu-4
1 41340U 16012D   25241.25073912  .00035948  00000-0  85848-3 0  9990
2 41340  30.9960 308.1502 0007160 177.3929 182.6756 15.40261805525225
Lapan A3
1 41603U 16040E   25241.26666491  .00004540  00000-0  15685-3 0  9990
2 41603  97.1411 242.7456 0010317 352.1214   7.9864 15.30367857510127
CAS-2T
1 41847U 16066G   25241.22195064  .00000831  00000-0  12829-3 0  9993
2 41847  98.4148 314.9702 0344338 294.5887  61.9788 14.43672254462654
CAS-4B
1 42759U 17034B   25241.31342201  .00173182  00000-0  10142-2 0  9994
2 42759  43.0020 196.5949 0021139 145.4420 214.7828 15.76728745455285
CAS-4A
1 42761U 17034D   25241.25719712  .00198656  00000-0  10322-2 0  9998
2 42761  43.0053 192.8656 0021828 150.6728 209.5373 15.79286055455308
TechnoSat
1 42829U 17042E   25241.19116764  .00004609  00000-0  35299-3 0  9998
2 42829  97.4010  46.0872 0017865  15.7987 344.3792 15.02202888442827
AO-91
1 43017U 17073E   25241.22367913  .00009152  00000-0  46113-3 0  9995
2 43017  97.5126 109.9717 0167099 251.3785 106.9234 15.05963309421344
S-Net D
1 43186U 18014G   25241.22954146  .00007056  00000-0  40841-3 0  9991
2 43186  97.5517 143.3107 0007531 316.9603  43.1038 15.12524829414569
S-Net B
1 43187U 18014H   25241.23599903  .00006756  00000-0  39143-3 0  9998
2 43187  97.5523 143.2929 0008095 310.7961  49.2567 15.12505102414560
S-Net A
1 43188U 18014J   25241.22964112  .00006987  00000-0  40435-3 0  9998
2 43188  97.5531 143.4474 0008012 311.5172  48.5371 15.12530403414566
S-Net C
1 43189U 18014K   25241.23859446  .00006634  00000-0  38433-3 0  9997
2 43189  97.5547 143.4840 0009311 301.9601  58.0724 15.12501830413114
Ten-Koh
1 43677U 18084G   25241.07297820  .00003273  00000-0  26207-3 0  9992
2 43677  98.0835  56.5184 0006746   8.4797 351.6539 15.00906140372313
PO-101
1 43678U 18084H   25241.31993727  .00003822  00000-0  32330-3 0  9993
2 43678  98.1096  60.5633 0009125  32.8045 327.3741 14.98658819372474
QO-100
1 43700U 18090A   25241.24668139  .00000147  00000-0  00000-0 0  9997
2 43700   0.0157 123.9158 0001156  47.3270 281.0621  1.00273556 24740
MinXSS-2
1 43758U 18099A   25241.13921193  .00025416  00000-0  92944-3 0  9996
2 43758  97.4946 307.5331 0010633 225.4827 134.5544 15.28004467369262
AO-95
1 43770U 18099N   25241.14271981  .00012687  00000-0  61672-3 0  9994
2 43770  97.4839 298.3766 0008714 293.8263  66.2057 15.18528214368771
SNUSat 2
1 43782U 18099AA  25241.11392087  .00010808  00000-0  57075-3 0  9990
2 43782  97.4522 294.4301 0010747 228.7650 131.2657 15.15641900368696
SnugLite
1 43784U 18099AC  25241.08931218  .00014076  00000-0  67767-3 0  9993
2 43784  97.4337 294.1422 0002646 207.3654 152.7442 15.18869215368851
ITASat 1
1 43786U 18099AE  25241.14610762  .00008765  00000-0  48764-3 0  9994
2 43786  97.4495 293.7270 0012378 288.8486  71.1403 15.13830479368647
EAGLET 1
1 43790U 18099AJ  25241.10005993  .00006556  00000-0  41071-3 0  9999
2 43790  97.4688 293.3584 0010406 272.6501  87.3537 15.09648757368210
ESEO
1 43792U 18099AL  25241.10513140  .00001621  00000-0  12512-3 0  9995
2 43792  97.4412 285.5347 0010137 244.8170 115.2005 15.02874663367918
JO-97
1 43803U 18099AX  25241.14286386  .00016659  00000-0  72128-3 0  9997
2 43803  97.4587 299.5573 0006719 210.7196 149.3648 15.22468030369025
Suomi 100
1 43804U 18099AY  25241.22772619  .00014423  00000-0  67596-3 0  9996
2 43804  97.4655 298.6939 0011210 220.0765 139.9644 15.19744727368943
ISAT
1 43879U 18111D   25241.26489550  .00030993  00000-0  97619-3 0  9995
2 43879  97.5876 157.5733 0005258 269.5866  90.4773 15.32849482366043
UWE-4
1 43880U 18111E   25241.21215542  .00023469  00000-0  85651-3 0  9993
2 43880  97.5822 155.3948 0008842 290.7816  69.2475 15.28105327365931
Sparrow
1 43881U 18111F   25241.24262921  .00033687  00000-0  10137-2 0  9999
2 43881  97.6038 160.7588 0004227 334.2973  25.8059 15.34290169366149
Prox-1
1 44339U 19036A   25241.15321056  .00017011  00000-0  20875-2 0  9993
2 44339  23.9960 251.9581 0006591 266.1030  93.8714 14.81448175329979
Taurus 1
1 44530U 19059C   25241.31992294  .00010033  00000-0  18083-2 0  9992
2 44530  98.6157  24.6296 0010006 143.1305 217.0587 14.66708253315772
Duchifat 3
1 44854U 19089C   25241.21501314  .00088152  00000-0  13099-2 0  9991
2 44854  36.9389 199.9276 0008266 247.0650 112.9237 15.53954916315534
TO-108
1 44881U 19093C   25241.24643832  .00001198  00000-0  14397-3 0  9999
2 44881  97.7873 315.1963 0012980 332.1557  27.8962 14.85744654308050
FloripaSat 1
1 44885U 19093G   25241.26070759  .00008938  00000-0  73715-3 0  9995
2 44885  97.8142 329.0570 0007695 298.4822  61.5625 14.99235816308835
RS-44
1 44909U 19096E   25241.23703842  .00000038  00000-0  10006-3 0  9995
2 44909  82.5251 173.6997 0218461 106.8686 255.6496 12.79742881265009
UPMSat 2
1 46276U 20061E   25241.26295949  .00183505  00000-0  84715-3 0  9994
2 46276  97.2338 319.0486 0002404 213.1356 146.9764 15.83041711278163
SALSAT
1 46495U 20068K   25241.21962202  .00010252  00000-0  42853-3 0  9997
2 46495  97.8684 223.0632 0009405 235.7460 124.2885 15.23779634270809
